ロニオス彗星

P/2005 GF8 ( LONEOS )

English version
Home page
Updated on January 21, 2006

---------------------------------------------------------------------

・ プロフィール

発見日 2005年4月2日
発見光度 17.8等
発見者 Lowell Observatory Near-Earth Object Search

・ 軌道要素

The following orbital elements are taken from MPC 54823:

Epoch 2005 Aug. 18.0 TT = JDT 2453600.5
T 2005 Aug. 17.5517 TT                                  MPC
q   2.829549             (2000.0)            P               Q
n   0.0695414      Peri.  285.3401      -0.4921511      +0.8703868
a   5.856532       Node   315.1682      -0.7905036      -0.4538955
e   0.516856       Incl.    1.1893      -0.3645426      -0.1908028
P  14.2
From 213 observations 2005 Apr. 2-Sept. 15, mean residual 0".6.

・ 星図

・ 光度変化

        m1 = 11.0 + 5 logΔ + 10.0 log r

---------------------------------------------------------------------

軌道要素はMPCのEphemerides and Orbital Elementsに掲載されたものです。
星図は StellaNavigator Ver.2.0 for Windows (アストロアーツ 編著 / アスキー出版局刊) で作成したものです。
光度グラフはComet for Windowsで作成したものです。

---------------------------------------------------------------------

Copyright(C) Seiichi Yoshida (comet@aerith.net). All rights reserved.